x

Kenosha, Wi (knsw3) Weather Station

6:00am - Fri 12th Feb 2016 All times are CST. -6 hours from GMT.

  • Wind
    18mph, 22mph gusts
  • Air Temp 19°f
  • Sea Pressure 1019.6mb
  • Kenosha, Wi
  • Kenosha, Wi

More Historic Weather Station data

Upgrade to MSW Pro to gain access to the past 30 days of data for over 8000 Wavebouys and Weather Stations around the globe.

Join Pro

Comparision Forecast

View Surf forecast
   
Fri 02/12 6:00am 18 22 mph 1019.6mb 19f
5:50am 11 21 mph 1019.6mb 19f
5:40am 14 20 mph 1020mb 19f
5:30am 15 22 mph 1019.6mb 19f
5:20am 13 21 mph 1019.6mb 19f
5:10am 14 17 mph 1019.6mb 19f
5:00am 11 16 mph 1020mb 19f
4:50am 11 17 mph 1020mb 19f
4:40am 13 17 mph 1020mb 19f
4:30am 15 21 mph 1020.3mb 19f
4:20am 14 18 mph 1020.3mb 19f
4:10am 15 20 mph 1020.3mb 19f
4:00am 13 17 mph 1020.3mb 19f
3:50am 15 18 mph 1020.3mb 19f
3:40am 14 23 mph 1020.3mb 19f
3:30am 15 22 mph 1020.3mb 19f
3:20am 16 24 mph 1020.3mb 19f
3:10am 16 20 mph 1020.3mb 19f
3:00am 15 18 mph 1020.7mb 19f
2:50am 16 21 mph 1020.7mb 19f
2:40am 17 22 mph 1020.7mb 19f
2:30am 16 20 mph 1021mb 19f
2:20am 15 17 mph 1021mb 19f
2:10am 13 16 mph 1021mb 19f
2:00am 11 15 mph 1021.3mb 19f
1:50am 10 16 mph 1021.3mb 19f
1:40am 10 16 mph 1021.3mb 19f
1:30am 10 14 mph 1021.3mb 19f
1:20am 10 14 mph 1021.7mb 19f
1:10am 11 14 mph 1021.7mb 19f
1:00am 9 14 mph 1022mb 19f
12:50am 9 15 mph 1022mb 19f
12:40am 13 16 mph 1022.4mb 19f
12:30am 10 15 mph 1022.7mb 19f
12:20am 10 15 mph 1022.7mb 19f
12:10am 10 14 mph 1023mb 18f
12:00am 10 16 mph 1023mb 18f
Thu 02/11 11:50pm 9 15 mph 1023mb 18f
11:40pm 11 16 mph 1023.4mb 18f
11:30pm 9 14 mph 1023.4mb 18f
11:20pm 8 13 mph 1023.4mb 18f
11:10pm 9 13 mph 1023.7mb 18f
11:00pm 9 11 mph 1023.7mb 17f
10:50pm 8 13 mph 1024mb 17f
10:40pm 7 13 mph 1024mb 17f
10:30pm 9 13 mph 1024mb 17f
10:20pm 7 10 mph 1024mb 17f
10:10pm 9 11 mph 1024mb 17f
10:00pm 8 13 mph 1024mb 17f
9:50pm 9 11 mph 1024mb 17f
9:40pm 8 11 mph 1024mb 17f
9:30pm 7 11 mph 1024.4mb 17f
9:20pm 7 10 mph 1024.4mb 17f
9:10pm 8 10 mph 1024.4mb 17f
9:00pm 7 10 mph 1024.4mb 17f
8:50pm 5 8 mph 1024.7mb 17f
8:40pm 5 7 mph 1024.7mb 17f
8:30pm 3 7 mph 1024.7mb 17f
8:20pm 5 7 mph 1024.7mb 17f
8:10pm 5 7 mph 1024.7mb 17f
8:00pm 5 8 mph 1024.7mb 18f
7:50pm 5 8 mph 1024.7mb 18f
7:40pm 3 8 mph 1024.7mb 18f
7:30pm 6 10 mph 1024.7mb 18f
7:20pm 6 9 mph 1024.7mb 18f
7:10pm 5 9 mph 1024.7mb 18f
7:00pm 6 9 mph 1025.1mb 18f
6:50pm 6 9 mph 1025.1mb 18f
6:40pm 6 8 mph 1025.1mb 18f
6:30pm 6 7 mph 1025.1mb 18f
6:20pm 3 6 mph 1025.1mb 18f
6:10pm 5 8 mph 1024.7mb 19f
6:00pm 6 8 mph 1024.7mb 19f
5:50pm 6 8 mph 1024.7mb 19f
5:40pm 6 11 mph 1025.1mb 19f
5:30pm 9 11 mph 1025.1mb 19f
5:20pm 8 10 mph 1025.1mb 19f
5:10pm 8 10 mph 1025.1mb 19f
5:00pm 9 10 mph 1025.1mb 19f
4:50pm 8 11 mph 1025.1mb 19f
4:40pm 9 13 mph 1025.1mb 19f
4:30pm 10 14 mph 1025.1mb 19f
4:20pm 10 15 mph 1025.1mb 19f
4:10pm 11 15 mph 1025.1mb 19f
4:00pm 8 14 mph 1025.1mb 20f
3:50pm 10 13 mph 1025.1mb 19f
3:40pm 9 13 mph 1025.1mb 19f
3:30pm 13 17 mph 1024.7mb 19f
3:20pm 6 15 mph 1025.1mb 19f
3:10pm 10 14 mph 1025.1mb 19f
3:00pm 8 14 mph 1025.1mb 19f
2:50pm 13 17 mph 1025.1mb 19f
2:40pm 7 13 mph 1025.1mb 18f
2:30pm 8 11 mph 1025.1mb 18f
2:20pm 10 11 mph 1025.1mb 18f
2:10pm 8 13 mph 1025.4mb 17f
2:00pm 9 15 mph 1025.4mb 17f
1:50pm 10 13 mph 1025.4mb 17f
1:40pm 8 13 mph 1025.7mb 17f
1:30pm 11 14 mph 1025.7mb 17f
1:20pm 10 14 mph 1025.7mb 16f
1:10pm 10 14 mph 1026.1mb 16f
1:00pm 8 13 mph 1026.1mb 16f
12:50pm 8 14 mph 1026.1mb 16f
12:40pm 7 14 mph 1026.1mb 15f
12:30pm 9 14 mph 1026.1mb 15f
12:20pm 11 15 mph 1026.4mb 14f
12:10pm 10 14 mph 1026.4mb 15f
12:00pm 10 13 mph 1026.4mb 15f
11:50am 6 14 mph 1026.4mb 14f
11:40am 10 15 mph 1026.4mb 14f
11:30am 9 14 mph 1026.4mb 13f
11:20am 11 14 mph 1026.4mb 14f
11:10am 8 15 mph 1026.8mb 13f
11:00am 10 13 mph 1026.4mb 13f
10:50am 11 15 mph 1026.4mb 13f
10:40am 10 14 mph 1026.4mb 12f
10:30am 10 15 mph 1026.4mb 13f
10:20am 11 14 mph 1026.4mb 12f
10:10am 9 14 mph 1026.4mb 12f
10:00am 11 14 mph 1026.1mb 11f
9:50am 10 14 mph 1026.1mb 11f
9:40am 9 14 mph 1026.1mb 11f
9:30am 11 17 mph 1026.1mb 10f
9:20am 13 17 mph 1026.1mb 10f
9:10am 13 16 mph 1026.1mb 10f
9:00am 13 18 mph 1025.7mb 9f
8:00am 13 17 mph 1025.4mb 7f
7:00am 14 18 mph 1024.7mb 7f
6:50am 13 17 mph 1024.7mb 6f
6:00am 11 17 mph 1024mb 7f
5:50am 13 17 mph 1024mb 6f
5:40am 13 20 mph 1024mb 7f
5:30am 11 16 mph 1023.7mb 7f
5:20am 11 15 mph 1023.7mb 7f
5:10am 9 14 mph 1023.7mb 7f
5:00am 8 11 mph 1023.7mb 7f
4:50am 8 11 mph 1023.7mb 7f
4:40am 9 13 mph 1023.4mb 6f
4:30am 8 13 mph 1023.4mb 7f
4:20am 8 11 mph 1023.4mb 7f
4:10am 8 11 mph 1023mb 7f
4:00am 9 13 mph 1023mb 7f
3:50am 9 13 mph 1023mb 7f
3:40am 8 13 mph 1022.7mb 7f
3:30am 8 11 mph 1022.7mb 8f
3:20am 8 14 mph 1022.7mb 8f
3:10am 10 15 mph 1022.7mb 8f
3:00am 11 16 mph 1022.7mb 8f
2:50am 11 16 mph 1022.7mb 8f
2:40am 10 16 mph 1022.7mb 9f
2:30am 13 16 mph 1022.4mb 9f
2:20am 11 16 mph 1022.4mb 9f
2:10am 13 16 mph 1022.4mb 9f
2:00am 11 15 mph 1022mb 9f
1:50am 11 15 mph 1021.7mb 9f
1:40am 11 15 mph 1021.7mb 10f
1:30am 11 16 mph 1021.7mb 10f
1:20am 11 16 mph 1021.3mb 9f
1:10am 13 18 mph 1021.7mb 10f
1:00am 10 16 mph 1021.7mb 10f
12:50am 11 15 mph 1021.7mb 9f
12:40am 10 14 mph 1021.7mb 9f
12:30am 10 15 mph 1021.7mb 9f
12:20am 11 16 mph 1021.7mb 9f
12:10am 10 15 mph 1021.3mb 9f
12:00am 8 13 mph 1021.3mb 9f
Wed 02/10 11:50pm 9 15 mph 1021.3mb 9f
11:40pm 9 13 mph 1021.3mb 9f
11:30pm 10 15 mph 1021.3mb 9f
11:20pm 9 13 mph 1021.3mb 9f
11:10pm 9 14 mph 1021.3mb 9f
11:00pm 10 13 mph 1021.3mb 10f
10:50pm 9 13 mph 1021.3mb 10f
10:40pm 9 11 mph 1021.3mb 11f
10:30pm 9 11 mph 1021.3mb 10f
10:20pm 8 10 mph 1021.3mb 10f
10:10pm 8 10 mph 1021.3mb 10f
10:00pm 7 10 mph 1021.3mb 11f
9:50pm 7 11 mph 1021.3mb 11f
9:40pm 8 10 mph 1021mb 10f
9:30pm 8 10 mph 1021.3mb 10f
9:20pm 7 10 mph 1021mb 10f
9:10pm 7 9 mph 1020.7mb 10f
9:00pm 7 10 mph 1020.7mb 10f
8:50pm 7 10 mph 1020.3mb 11f
8:40pm 6 9 mph 1020.3mb 11f
8:30pm 7 9 mph 1020.3mb 11f
8:20pm 8 10 mph 1020.3mb 11f
8:10pm 7 9 mph 1020.3mb 11f
8:00pm 7 9 mph 1020.3mb 11f
7:50pm 7 9 mph 1020.3mb 11f
7:40pm 6 10 mph 1020.3mb 12f
7:30pm 8 10 mph 1020.3mb 12f
7:20pm 8 10 mph 1020.3mb 12f
7:10pm 7 10 mph 1020mb 12f
7:00pm 8 11 mph 1020mb 12f
6:50pm 8 11 mph 1020mb 12f
6:40pm 7 9 mph 1019.6mb 13f
6:30pm 7 11 mph 1019.6mb 13f
6:20pm 8 11 mph 1019.6mb 13f
6:10pm 8 11 mph 1019.6mb 13f
6:00pm 9 13 mph 1019.6mb 13f
5:50pm 9 15 mph 1019.3mb 13f
5:40pm 10 13 mph 1019mb 13f
5:30pm 10 14 mph 1018.6mb 13f
5:20pm 8 14 mph 1018.6mb 13f
5:10pm 13 15 mph 1018.3mb 13f
5:00pm 11 15 mph 1018.3mb 13f
4:50pm 15 18 mph 1018.3mb 13f
4:40pm 13 17 mph 1017.9mb 14f
4:30pm 8 14 mph 1017.9mb 14f
4:20pm 9 16 mph 1017.9mb 13f
4:10pm 11 15 mph 1017.3mb 14f
4:00pm 11 16 mph 1017.3mb 14f
3:50pm 13 15 mph 1017.3mb 14f
3:40pm 9 17 mph 1017.3mb 14f
3:30pm 15 21 mph 1017.3mb 14f
3:20pm 10 16 mph 1016.9mb 14f
3:10pm 10 16 mph 1016.9mb 14f
3:00pm 13 16 mph 1016.6mb 14f
2:50pm 10 17 mph 1016.6mb 14f
2:40pm 13 22 mph 1016.6mb 14f
2:30pm 14 18 mph 1016.3mb 14f
2:20pm 15 18 mph 1016.3mb 13f
2:10pm 9 16 mph 1016.3mb 15f
2:00pm 11 16 mph 1016.3mb 14f
1:50pm 13 16 mph 1016.3mb 14f
1:40pm 13 18 mph 1016.3mb 13f
1:30pm 11 18 mph 1016.3mb 13f
1:20pm 13 15 mph 1015.9mb 13f
1:10pm 10 15 mph 1015.9mb 13f
1:00pm 13 17 mph 1015.9mb 13f
12:50pm 13 16 mph 1016.3mb 13f
12:40pm 11 15 mph 1016.3mb 13f
12:30pm 10 14 mph 1016.3mb 13f
12:20pm 13 17 mph 1016.3mb 13f
12:10pm 9 13 mph 1016.3mb 13f
12:00pm 11 16 mph 1016.3mb 12f
11:50am 9 20 mph 1016.3mb 13f
11:40am 14 18 mph 1016.3mb 12f
11:30am 11 16 mph 1016.6mb 13f
11:20am 14 18 mph 1016.9mb 12f
11:10am 14 20 mph 1016.6mb 12f
11:00am 14 21 mph 1016.6mb 13f
10:50am 9 17 mph 1016.6mb 12f
10:40am 14 20 mph 1016.9mb 12f
10:30am 15 22 mph 1016.6mb 12f
10:20am 17 20 mph 1016.6mb 12f
10:10am 11 17 mph 1016.6mb 12f
10:00am 11 18 mph 1016.6mb 12f
9:50am 11 20 mph 1016.6mb 12f
9:40am 14 20 mph 1016.6mb 12f
9:30am 13 17 mph 1016.6mb 12f
9:20am 11 16 mph 1016.6mb 12f
9:10am 15 20 mph 1016.6mb 12f
9:00am 16 21 mph 1016.6mb 11f
8:50am 14 18 mph 1016.6mb 11f
8:40am 10 16 mph 1016.3mb 11f
8:30am 10 16 mph 1016.3mb 11f
8:20am 10 16 mph 1016.3mb 11f
8:10am 11 16 mph 1016.3mb 10f
8:00am 11 16 mph 1015.9mb 10f
7:50am 9 16 mph 1015.9mb 10f
7:40am 9 14 mph 1015.9mb 10f
7:30am 9 15 mph 1015.6mb 10f
7:20am 9 15 mph 1015.6mb 9f
7:10am 10 13 mph 1015.2mb 9f
7:00am 9 13 mph 1015.2mb 9f
6:50am 8 14 mph 1014.9mb 10f
6:40am 9 13 mph 1014.9mb 9f
6:30am 9 14 mph 1014.9mb 10f
6:20am 10 15 mph 1014.9mb 10f
6:10am 10 15 mph 1014.9mb 10f
6:00am 10 16 mph 1015.2mb 10f
5:50am 9 14 mph 1015.2mb 10f
5:40am 11 16 mph 1015.2mb 10f
5:30am 13 16 mph 1015.2mb 10f
5:20am 10 15 mph 1015.2mb 10f
5:10am 11 15 mph 1014.9mb 10f
5:00am 11 15 mph 1014.6mb 10f
4:50am 11 16 mph 1014.6mb 10f
4:40am 14 17 mph 1014.6mb 10f
4:30am 11 17 mph 1014.6mb 11f
4:20am 13 17 mph 1014.6mb 11f
4:10am 13 18 mph 1014.6mb 11f
4:00am 13 18 mph 1014.6mb 11f
3:50am 13 18 mph 1014.6mb 11f
3:40am 15 20 mph 1014.2mb 11f
3:30am 11 17 mph 1014.6mb 11f
3:20am 13 15 mph 1014.2mb 11f
3:10am 11 14 mph 1014.2mb 11f
3:00am 11 15 mph 1014.2mb 11f
2:50am 9 14 mph 1014.6mb 12f
2:40am 10 14 mph 1014.2mb 12f
2:30am 10 15 mph 1014.2mb 12f
2:20am 11 17 mph 1014.2mb 12f
2:10am 11 17 mph 1014.2mb 13f
2:00am 13 18 mph 1014.2mb 13f
1:50am 13 20 mph 1014.2mb 13f
1:40am 16 20 mph 1014.2mb 12f
1:30am 14 18 mph 1014.2mb 13f
1:20am 14 18 mph 1014.2mb 13f
1:10am 11 18 mph 1013.9mb 13f
1:00am 15 20 mph 1013.9mb 13f
12:50am 15 21 mph 1013.9mb 13f
12:40am 16 23 mph 1013.9mb 13f
12:30am 17 25 mph 1013.9mb 14f
12:20am 14 21 mph 1013.9mb 15f
12:10am 16 22 mph 1013.5mb 15f
12:00am 15 23 mph 1013.5mb 15f
Tue 02/09 11:50pm 16 22 mph 1013.2mb 15f
11:40pm 15 23 mph 1013.5mb 15f
11:30pm 13 23 mph 1013.5mb 15f
11:20pm 14 21 mph 1013.5mb 15f
11:10pm 17 23 mph 1013.5mb 15f
11:00pm 17 25 mph 1013.5mb 15f
10:50pm 21 26 mph 1013.5mb 15f
10:40pm 16 23 mph 1013.5mb 15f
10:30pm 17 25 mph 1013.2mb 15f
10:20pm 15 23 mph 1013.2mb 15f
10:10pm 15 21 mph 1013.5mb 15f
10:00pm 15 23 mph 1013.2mb 15f
9:50pm 17 22 mph 1013.2mb 15f
9:40pm 15 23 mph 1013.2mb 15f
9:30pm 15 22 mph 1013.2mb 15f
9:20pm 17 23 mph 1013.5mb 15f
9:10pm 16 26 mph 1013.2mb 15f
9:00pm 20 24 mph 1013.2mb 15f
8:50pm 16 21 mph 1013.2mb 15f
8:40pm 14 20 mph 1013.2mb 15f
8:30pm 14 25 mph 1013.2mb 15f
8:20pm 15 20 mph 1013.2mb 15f
8:10pm 15 20 mph 1013.2mb 16f
8:00pm 15 23 mph 1013.2mb 16f
7:50pm 14 20 mph 1013.2mb 16f
7:40pm 16 22 mph 1013.2mb 16f
7:30pm 16 23 mph 1013.2mb 16f
7:20pm 13 20 mph 1013.2mb 16f
7:10pm 14 23 mph 1013.2mb 16f
7:00pm 15 18 mph 1013.2mb 16f
6:50pm 14 22 mph 1013.2mb 17f
6:40pm 13 20 mph 1013.2mb 17f
6:30pm 10 16 mph 1013.2mb 17f
6:20pm 9 16 mph 1013.2mb 17f
6:10pm 14 17 mph 1012.9mb 16f
6:00pm 13 20 mph 1012.9mb 16f
5:50pm 11 20 mph 1012.9mb 17f
5:40pm 13 18 mph 1012.9mb 17f
5:30pm 13 20 mph 1012.5mb 16f
5:20pm 15 21 mph 1012.5mb 16f
5:10pm 13 21 mph 1012.5mb 17f
5:00pm 14 20 mph 1012.2mb 17f
4:50pm 13 24 mph 1012.2mb 16f
4:40pm 17 23 mph 1011.9mb 17f
4:30pm 18 23 mph 1011.9mb 17f
4:20pm 18 23 mph 1011.5mb 17f
4:10pm 13 20 mph 1011.5mb 17f
4:00pm 13 22 mph 1011.5mb 17f
3:50pm 17 22 mph 1011.2mb 17f
3:40pm 16 23 mph 1011.5mb 17f
3:30pm 16 22 mph 1011.2mb 17f
3:20pm 17 24 mph 1011.2mb 17f
3:10pm 13 22 mph 1010.8mb 17f
3:00pm 18 23 mph 1010.8mb 17f
2:50pm 16 21 mph 1010.8mb 17f
2:40pm 17 22 mph 1010.5mb 17f
2:30pm 17 23 mph 1010.5mb 17f
2:20pm 17 23 mph 1010.2mb 17f
2:10pm 17 22 mph 1010.2mb 17f
2:00pm 18 22 mph 1010.2mb 17f
1:50pm 13 22 mph 1010.2mb 17f
1:40pm 18 23 mph 1010.2mb 17f
1:30pm 17 22 mph 1009.8mb 17f
1:20pm 17 22 mph 1009.8mb 17f
1:10pm 16 22 mph 1009.8mb 17f
1:00pm 16 22 mph 1009.8mb 17f
12:50pm 11 21 mph 1009.8mb 18f
12:40pm 17 25 mph 1009.8mb 17f
12:30pm 18 23 mph 1009.8mb 17f
12:20pm 16 23 mph 1009.8mb 17f
12:10pm 15 22 mph 1010.2mb 17f
12:00pm 17 21 mph 1009.8mb 17f
11:50am 18 23 mph 1009.8mb 17f
11:40am 14 23 mph 1010.2mb 17f
11:30am 14 22 mph 1010.2mb 17f
11:20am 15 24 mph 1010.2mb 17f
11:10am 15 24 mph 1010.2mb 16f
11:00am 15 23 mph 1010.2mb 17f
10:50am 17 25 mph 1010.2mb 16f
10:40am 17 24 mph 1009.8mb 16f
10:30am 17 24 mph 1009.8mb 15f
10:20am 21 24 mph 1009.8mb 15f
10:10am 16 24 mph 1009.8mb 15f
10:00am 17 25 mph 1009.8mb 15f
9:50am 18 26 mph 1009.5mb 14f
9:40am 18 26 mph 1009.5mb 15f
9:30am 20 24 mph 1009.8mb 14f
9:20am 20 24 mph 1009.5mb 14f
9:10am 16 21 mph 1009.8mb 14f
9:00am 17 24 mph 1009.8mb 14f
8:50am 20 24 mph 1009.5mb 14f
8:40am 15 21 mph 1009.5mb 14f
8:30am 20 25 mph 1009.5mb 14f
8:20am 17 23 mph 1009.5mb 14f
8:10am 17 22 mph 1009.5mb 14f
8:00am 14 23 mph 1009.5mb 14f
7:50am 16 25 mph 1009.5mb 14f
7:40am 17 24 mph 1009.1mb 14f
7:30am 14 18 mph 1009.1mb 14f
7:20am 14 18 mph 1009.1mb 14f
7:10am 14 18 mph 1008.8mb 14f
7:00am 13 18 mph 1008.5mb 14f
6:50am 13 21 mph 1008.8mb 15f
6:40am 15 20 mph 1008.5mb 15f
6:30am 16 20 mph 1008.5mb 15f
6:20am 16 22 mph 1008.5mb 15f
6:10am 17 23 mph 1008.5mb 15f
6:00am 16 23 mph 1008.1mb 16f
5:50am 16 23 mph 1008.1mb 16f
5:40am 15 20 mph 1008.1mb 17f
5:30am 14 20 mph 1007.8mb 17f
5:20am 16 20 mph 1007.5mb 17f
5:10am 14 18 mph 1007.5mb 17f
5:00am 13 21 mph 1007.5mb 17f
4:50am 16 21 mph 1007.5mb 17f
4:40am 15 22 mph 1007.5mb 17f
4:30am 17 23 mph 1007.1mb 18f
4:20am 15 22 mph 1007.1mb 18f
4:10am 16 23 mph 1007.1mb 18f
4:00am 16 22 mph 1006.8mb 18f
3:50am 15 22 mph 1006.8mb 18f
3:40am 15 21 mph 1006.8mb 18f
3:30am 16 21 mph 1006.4mb 18f
3:20am 14 18 mph 1006.4mb 18f
3:10am 16 22 mph 1006.4mb 18f
3:00am 14 22 mph 1006.4mb 19f
2:50am 16 21 mph 1006.4mb 19f
2:40am 14 21 mph 1006.8mb 19f
2:30am 18 25 mph 1006.4mb 19f
2:20am 16 23 mph 1006.4mb 19f
2:10am 15 22 mph 1006.4mb 19f
2:00am 18 23 mph 1006.4mb 19f
1:50am 16 22 mph 1006.4mb 19f
1:40am 16 21 mph 1006.4mb 19f
1:30am 15 23 mph 1006.4mb 19f
1:20am 14 21 mph 1006.4mb 19f
1:10am 17 23 mph 1006.4mb 19f
1:00am 18 23 mph 1006.4mb 19f
12:50am 15 22 mph 1006.4mb 19f
12:40am 16 23 mph 1006.4mb 19f
12:30am 17 24 mph 1006.4mb 19f
12:20am 18 24 mph 1006.4mb 19f
12:10am 18 24 mph 1006.4mb 19f
12:00am 18 24 mph 1006.4mb 19f
Mon 02/08 11:50pm 20 28 mph 1006.4mb 19f
11:40pm 17 26 mph 1006.8mb 20f
11:30pm 22 26 mph 1006.4mb 20f
11:20pm 23 28 mph 1006.4mb 20f
11:10pm 18 24 mph 1006.4mb 21f
11:00pm 17 28 mph 1006.8mb 21f
10:50pm 16 24 mph 1006.8mb 21f
10:40pm 14 22 mph 1006.8mb 21f
10:30pm 18 23 mph 1006.4mb 21f
10:20pm 16 20 mph 1006.8mb 22f
10:10pm 13 18 mph 1006.8mb 22f
10:00pm 11 22 mph 1006.8mb 22f
9:50pm 14 22 mph 1006.8mb 22f
9:40pm 14 21 mph 1006.8mb 22f
9:30pm 15 21 mph 1006.8mb 22f
9:20pm 15 24 mph 1006.8mb 22f
9:10pm 14 24 mph 1006.8mb 23f
9:00pm 14 21 mph 1006.8mb 23f
8:50pm 13 17 mph 1006.8mb 23f
8:40pm 14 20 mph 1006.8mb 23f
8:30pm 13 22 mph 1006.8mb 24f
8:20pm 16 24 mph 1006.8mb 24f
8:10pm 17 24 mph 1006.8mb 24f
8:00pm 16 23 mph 1006.8mb 24f
7:50pm 14 21 mph 1006.8mb 24f
7:40pm 15 23 mph 1006.8mb 25f
7:30pm 13 23 mph 1006.8mb 25f
7:20pm 14 18 mph 1006.8mb 25f
7:10pm 13 23 mph 1006.8mb 24f
7:00pm 15 22 mph 1006.8mb 24f
6:50pm 14 20 mph 1006.8mb 24f
6:40pm 16 21 mph 1006.8mb 25f
6:30pm 14 23 mph 1006.8mb 25f
6:20pm 13 24 mph 1006.8mb 26f
6:10pm 16 25 mph 1006.4mb 26f
6:00pm 13 20 mph 1006.4mb 26f
5:50pm 16 21 mph 1006.4mb 26f
5:40pm 15 21 mph 1006.4mb 26f
5:30pm 16 23 mph 1006.4mb 26f
5:20pm 16 22 mph 1006.1mb 26f
5:10pm 13 20 mph 1006.1mb 27f
5:00pm 15 24 mph 1006.1mb 27f
4:50pm 16 22 mph 1006.1mb 27f
4:40pm 16 22 mph 1006.1mb 27f
4:30pm 17 21 mph 1005.8mb 27f
4:20pm 14 20 mph 1005.8mb 27f
4:10pm 10 22 mph 1005.8mb 27f
4:00pm 13 22 mph 1005.8mb 27f
3:50pm 14 22 mph 1005.8mb 27f
3:40pm 14 17 mph 1005.4mb 27f
3:30pm 15 21 mph 1005.4mb 27f
3:20pm 17 21 mph 1005.1mb 27f
3:10pm 11 21 mph 1005.4mb 28f
3:00pm 16 22 mph 1005.1mb 27f
2:50pm 16 22 mph 1004.7mb 27f
2:40pm 15 21 mph 1004.7mb 27f
2:30pm 16 21 mph 1004.7mb 27f
2:20pm 17 22 mph 1004.4mb 27f
2:10pm 14 18 mph 1004.4mb 27f
2:00pm 16 21 mph 1004.1mb 27f
1:50pm 17 21 mph 1004.4mb 27f
1:40pm 17 21 mph 1004.1mb 28f
1:30pm 15 22 mph 1004.1mb 28f
1:20pm 16 22 mph 1004.4mb 28f
1:10pm 16 21 mph 1004.1mb 28f